Alexandria, LA

9:59 PM CDT on August 20, 2017 (GMT -0500)
Alexandria International

Weather History for KAEX - December, 2010

Change the Weather History Date:

Wednesday, December 22, 2010

  Actual Average Record
Temperature  
Mean Temperature 58 °F 50 °F  
Max Temperature 68 °F 59 °F 78 °F (1931)
Min Temperature 48 °F 40 °F 13 °F (1989)
Degree Days  
Heating Degree Days 7 16  
Month to date heating degree days 356 321  
Since 1 July heating degree days 647 646  
Growing Degree Days 8 (Base 50)    
Moisture  
Dew Point 56 °F    
Average Humidity 77    
Maximum Humidity 93    
Minimum Humidity 61    
Precipitation  
Precipitation T in 0.16 in 5.65 in (1920)
Month to date precipitation 0.20 4.77  
Year to date precipitation 35.86 54.57  
Snow  
Snow 0.00 in - 5.00 in (1929)
Month to date snowfall 0.0  
Since 1 July snowfall 0.0  
Snow Depth 0.00 in    
Sea Level Pressure  
Sea Level Pressure 30.16 in    
Wind  
Wind Speed 6 mph (NNW)    
Max Wind Speed 14 mph    
Max Gust Speed 17 mph    
Visibility 8 miles    
Events      
T = Trace of Precipitation, MM = Missing Value Source: NWS Daily Summary

Daily Weather History Graph

Daily Weather History Graph

Search for Another Location

Airport or City:

Trip Planner

Search our weather history database for the weather conditions in past years. The results will help you decide how hot, cold, wet, or windy it might be!

Date:

Astronomy

Dec. 22, 2010 Rise Set
Actual Time 7:05 AM CST 5:12 PM CST
Civil Twilight 6:38 AM CST 5:39 PM CST
Nautical Twilight 6:08 AM CST 6:09 PM CST
Astronomical Twilight 5:38 AM CST 6:38 PM CST
Moon 6:52 PM CST (12/22) 8:11 AM CST (12/22)
Length of Visible Light 11h 00m
Length of Day
10h 06m
Full, 98% of the Moon is Illuminated
Dec 22
Full
Dec 27
Last Quarter
Jan 4
New
Jan 12
First Quarter
Jan 19
Full

Hourly Weather History & Observations

Time (CST) Temp. Dew Point Humidity Pressure Visibility Wind Dir Wind Speed Gust Speed Precip Events Conditions
12:53 AM 66.9 °F 63.0 °F 87% 30.04 in 9.0 mi WSW 8.1 mph - N/A   Overcast
1:53 AM 66.9 °F 63.0 °F 87% 30.05 in 9.0 mi WSW 6.9 mph - N/A   Overcast
2:53 AM 66.9 °F 62.1 °F 84% 30.07 in 9.0 mi WSW 9.2 mph - N/A   Overcast
3:53 AM 66.9 °F 62.1 °F 84% 30.08 in 9.0 mi WNW 5.8 mph - N/A   Overcast
4:53 AM 66.9 °F 62.1 °F 84% 30.08 in 9.0 mi WNW 3.5 mph - N/A   Overcast
5:12 AM 66.2 °F 62.6 °F 88% 30.07 in 8.0 mi Calm Calm - N/A   Overcast
5:21 AM 66.2 °F 62.6 °F 88% 30.08 in 8.0 mi Calm Calm - N/A   Overcast
5:53 AM 66.0 °F 62.1 °F 87% 30.10 in 7.0 mi WNW 3.5 mph - 0.00 in   Overcast
6:08 AM 66.2 °F 62.6 °F 88% 30.09 in 6.0 mi Calm Calm - N/A   Overcast
6:53 AM 64.9 °F 63.0 °F 93% 30.12 in 5.0 mi Calm Calm - N/A   Overcast
7:23 AM 64.4 °F 62.6 °F 94% 30.11 in 4.0 mi Calm Calm - N/A   Overcast
7:53 AM 64.9 °F 63.0 °F 93% 30.13 in 3.0 mi Calm Calm - N/A   Overcast
8:48 AM 66.2 °F 62.6 °F 88% 30.13 in 4.0 mi SW 3.5 mph - N/A   Overcast
8:53 AM 66.0 °F 63.0 °F 90% 30.15 in 4.0 mi Calm Calm - N/A   Overcast
8:56 AM 66.2 °F 62.6 °F 88% 30.14 in 4.0 mi Calm Calm - N/A   Overcast
9:53 AM 66.9 °F 63.0 °F 87% 30.17 in 8.0 mi West 4.6 mph - N/A   Overcast
10:00 AM 66.2 °F 62.6 °F 88% 30.16 in 9.0 mi West 5.8 mph - N/A   Overcast
10:40 AM 66.2 °F 62.6 °F 88% 30.16 in 5.0 mi NNW 6.9 mph - N/A   Overcast
10:53 AM 66.0 °F 61.0 °F 84% 30.17 in 6.0 mi NW 10.4 mph - N/A   Haze
11:02 AM 66.2 °F 60.8 °F 83% 30.16 in 7.0 mi NW 8.1 mph - N/A   Overcast
11:12 AM 64.4 °F 59.0 °F 83% 30.16 in 8.0 mi North 10.4 mph - N/A   Overcast
11:27 AM 64.4 °F 57.2 °F 77% 30.16 in 9.0 mi North 6.9 mph - N/A   Overcast
11:53 AM 64.0 °F 55.9 °F 75% 30.16 in 9.0 mi NNW 9.2 mph - N/A   Overcast
12:53 PM 63.0 °F 54.0 °F 72% 30.15 in 10.0 mi NNE 6.9 mph - N/A   Overcast
1:06 PM 62.6 °F 53.6 °F 72% 30.14 in 10.0 mi North 8.1 mph - N/A   Overcast
1:53 PM 64.0 °F 53.1 °F 67% 30.15 in 10.0 mi NE 8.1 mph - N/A   Mostly Cloudy
2:03 PM 66.2 °F 53.6 °F 64% 30.14 in 10.0 mi NNE 4.6 mph - N/A   Scattered Clouds
2:53 PM 63.0 °F 52.0 °F 67% 30.16 in 10.0 mi NE 10.4 mph - N/A   Mostly Cloudy
3:53 PM 59.0 °F 52.0 °F 78% 30.18 in 10.0 mi North 9.2 mph - N/A   Overcast
4:25 PM 57.2 °F 51.8 °F 82% 30.18 in 10.0 mi North 8.1 mph - N/A   Overcast
4:53 PM 57.0 °F 50.0 °F 77% 30.20 in 10.0 mi North 8.1 mph - N/A   Mostly Cloudy
5:53 PM 52.0 °F 48.0 °F 86% 30.22 in 10.0 mi NNW 3.5 mph - N/A   Clear
6:53 PM 52.0 °F 48.9 °F 89% 30.24 in 9.0 mi Calm Calm - N/A   Clear
7:53 PM 52.0 °F 48.0 °F 86% 30.25 in 10.0 mi North 4.6 mph - N/A   Clear
8:53 PM 52.0 °F 44.1 °F 74% 30.27 in 10.0 mi NNE 5.8 mph - N/A   Clear
9:53 PM 51.1 °F 42.1 °F 71% 30.28 in 10.0 mi North 4.6 mph - N/A   Clear
10:53 PM 50.0 °F 37.9 °F 63% 30.30 in 10.0 mi NNE 4.6 mph - N/A   Clear
11:53 PM 48.0 °F 35.1 °F 61% 30.29 in 10.0 mi NE 8.1 mph - N/A   Clear